Location: Unspecified
(0.0000°N, 0.0000°E)
Time: 15:11:45
(UTC+00:00)

Cosmos 2058 Rocket - Pass Details

Date: 27 January 2013
Orbit: 610 x 641 km, 82.5° (Epoch: 27 June)

Event Time Altitude Azimuth Distance (km) Brightness Sun altitude
Rises 19:53:41 0° 177° (S) 2,936 6.7 -23.9°
Reaches altitude 10° 19:55:57 10° 173° (S) 2,028 5.8 -24.4°
Enters shadow 19:58:24 31° 160° (SSE) 1,131 4.3 -25.0°
